Content
SEND FEEDBACK

Daily
Averages
Monthly
Summary
United States of America

BIG WATER, UTAH


Home > North America > United States > Utah
Elevation: 4166 feet     Latitude: 37 05N     Longitude: 111 40W

WEATHER
 
SELECT A DAY
Number of Records: 196,757;   Date Range: 1/1/95 - 9/27/14
 
SHARE

PRINT THIS DATA

[ ← Previous Day ]
WEATHER ALMANAC - MAY 22, 2013
[ Next Day → ]
[ °C ]   °F
Weather ElementAverageHighLow
Temperature77.9 °F90 °F (2:53 pm)61 °F (5:53 am)
Dewpoint18.6 °F28.9 °F (8:53 am)10.9 °F (5:53 pm)
Humidity12 %23 % (5:53 am)6 % (2:53 pm)
Barometer29.56 in29.65 in (2:53 am)29.47 in (2:53 pm)
Wind Speed9.9 mph17.3 mph (11:53 am)
Wind Gust31.1 mph (3:53 pm)
Weather ElementAverage
Visibility10 mi
Wind DirectionSSE (173.5 °)

Weather ElementTotal
Precipitation---
Cooling Degree Days10.5 (Base 65)
Growing Degree Days25.5 (Base 50)
Averaged from 23 records on May 22, 2013
WEATHER CONDITIONS BREAKOUT
WIND DIRECTION BREAKOUT
WEATHER BY HOUR - MAY 22, 2013
[ °C ]   °F
Local TimeTemperatureDewpointHumidityBarometerVisibilityWind DirectionWind SpeedGust SpeedPrecipitationEventsConditions
1:53 AM66.0 °F18.0 °F16 %29.64 in10.0 miSSW (210°)4.6 mphClear
2:53 AM66.9 °F17.1 °F15 %29.65 in10.0 miCalmClear
3:53 AM66.9 °F17.1 °F15 %29.64 in10.0 miSSW (210°)5.8 mphClear
4:53 AM62.1 °F19.0 °F19 %29.63 in10.0 miCalmClear
5:53 AM61.0 °F23.0 °F23 %29.65 in10.0 miCalmClear
6:53 AM69.1 °F24.1 °F18 %29.65 in10.0 miCalmClear
7:53 AM71.1 °F26.1 °F19 %29.65 in10.0 miNorth (10°)5.8 mphClear
8:53 AM73.9 °F28.9 °F19 %29.64 in10.0 miNorth (350°)4.6 mphClear
9:53 AM80.1 °F27.0 °F14 %29.61 in10.0 miNW (310°)12.7 mph24.2 mphClear
10:53 AM84.0 °F21.9 °F10 %29.57 in10.0 miSSW (200°)15.0 mph27.6 mphClear
11:53 AM86.0 °F21.0 °F9 %29.57 in10.0 miSW (230°)17.3 mph28.8 mphClear
12:53 PM88.0 °F18.0 °F8 %29.52 in10.0 miSSW (200°)10.4 mph21.9 mphClear
1:53 PM89.1 °F18.0 °F7 %29.50 in10.0 miSW (230°)11.5 mph26.5 mphClear
2:53 PM90.0 °F15.1 °F6 %29.47 in10.0 miSSW (200°)17.3 mph27.6 mphClear
3:53 PM89.1 °F12.9 °F6 %29.47 in10.0 miSSW (210°)15.0 mph31.1 mphClear
4:53 PM88.0 °F14.0 °F6 %29.47 in10.0 miSSW (210°)16.1 mph24.2 mphClear
5:53 PM87.1 °F10.9 °F6 %29.48 in10.0 miSSW (210°)15.0 mph25.3 mphClear
6:53 PM84.9 °F12.9 °F7 %29.49 in10.0 miSW (230°)15.0 mph27.6 mphClear
7:53 PM82.9 °F12.9 °F7 %29.51 in10.0 miSW (230°)13.8 mph24.2 mphClear
8:53 PM79.0 °F14.0 °F9 %29.53 in10.0 miSSW (200°)8.1 mphClear
9:53 PM75.9 °F16.0 °F10 %29.55 in10.0 miSouth (190°)12.7 mph19.6 mphClear
10:53 PM75.9 °F19.9 °F12 %29.54 in10.0 miSouth (180°)13.8 mph23.0 mphClear
11:53 PM73.9 °F21.0 °F14 %29.55 in10.0 miSouth (180°)12.7 mphClear
Hourly data recorded from KPGA, located miles away from Big Water, Utah







STORIES FROM OUR PARTNERS